Location: Peralejo
(40.5415°N, 4.1259°W)
Time: 10:52:23
(UTC+00:00)

Daily predictions for brighter satellites

Satellite Brightness Start Highest point End
(mag) Time Altitude Azimuth Time Altitude Azimuth Time Altitude Azimuth
H-2A ROCKET BODY 4.5 19:14:51 10° SW 19:19:07 23° S 19:29:53 10° SE
SPOT 1/Viking Rocket 3.9 19:19:57 10° SE 19:24:55 48° ENE 19:29:55 10° N
Cosmos 1833 4.3 19:19:19 10° NNW 19:24:57 66° ENE 19:30:31 10° SSE
Cosmos 2218 Rocket 4.1 19:19:28 10° N 19:25:51 64° E 19:32:05 10° SSE
Cosmos 1825 2.3 19:23:36 10° NNW 19:27:02 69° W 19:30:26 10° S
Hubble Space Telescope 3.1 19:27:03 10° SSW 19:28:18 11° SSW 19:29:33 10° S
ADEOS 4.1 19:23:34 10° S 19:28:45 66° WSW 19:33:57 10° NNW
Okean O Rocket 2.8 19:25:37 10° ESE 19:29:10 25° ENE 19:32:44 10° NNE
USA 267 3.7 19:23:36 10° NE 19:30:08 70° NW 19:36:37 10° WSW
Cosmos 1782 Rocket 3.5 19:27:48 10° S 19:32:10 85° E 19:36:36 10° N
Atlas Centaur 2 3.6 19:29:52 10° SSW 19:33:43 18° SSE 19:37:04 10° SE
CZ-4 R/B 1.3 19:30:10 10° SSE 19:34:02 64° ENE 19:37:52 10° N
CZ-4B R/B 3.4 19:39:41 10° S 19:43:18 54° WSW 19:46:48 10° NNW
Resurs 01 Rocket 2.3 19:39:45 10° SE 19:43:48 37° ENE 19:47:53 10° N
SJ 16-02 1.9 19:40:21 10° NNW 19:44:37 59° WSW 19:48:51 10° S
NOSS 3-1 (A) 2.9 19:43:50 10° SSW 19:48:31 64° ESE 19:54:02 10° NE
DELTA 2 DEB (DPAF) 4.1 19:44:28 10° NNE 19:48:37 55° E 19:52:46 10° S
Cosmos 1300 Rocket 3.8 19:46:14 10° SSW 19:50:35 76° W 19:54:59 10° N
Tiangong -1.7 19:52:24 10° SW 19:55:18 39° SSE 19:57:17 17° E
USA 229 DEB 4.2 19:52:32 10° SSE 19:57:30 28° ESE 20:02:48 10° NE
USA 229 4.2 19:52:40 10° SSE 19:57:37 27° ESE 20:02:53 10° NE
Milstar 3 4.4 19:51:41 10° SW 19:59:59 42° SSE 20:13:03 13° ESE
Cosmos 2151 Rocket 4.3 19:56:20 10° SSE 20:00:15 32° E 20:04:12 10° NNE
USA 234 3.5 19:58:35 14° ESE 20:04:10 63° NE 20:10:38 10° NW
USA 281 3.7 19:59:01 14° ESE 20:04:17 43° ENE 20:10:24 10° N
NOSS 3-1 (C) 4.4 20:04:31 10° WSW 20:09:08 41° NW 20:14:35 10° NNE
Cosmos 2227 Rocket 4.2 20:07:14 10° NNE 20:09:31 12° NE 20:11:48 10° ENE
CSL-04 Debris 4.1 20:04:58 10° SSE 20:10:24 82° ENE 20:15:53 10° NNW
SJ-6B 4.5 20:09:54 10° SSW 20:13:32 35° W 20:17:11 10° NNW
SL-4 R/B 4.2 20:12:46 10° NNW 20:14:50 14° N 20:16:51 10° NE
Cosmos 1697 Rocket 4.3 20:18:57 15° E 20:18:57 15° E 20:21:08 10° ENE
CSL-04 Rocket 3.7 20:13:20 10° SSE 20:18:51 89° ENE 20:24:21 10° NNW
Cosmos 371 Rocket 3.8 20:14:22 10° N 20:18:54 40° ENE 20:21:07 25° ESE
ATLAS 3B R/B 3.1 20:15:08 10° SW 20:22:07 73° NW 20:29:40 10° NNE
Okean 2 Rocket 3.2 20:17:50 10° S 20:22:12 54° E 20:26:36 10° NNE
COSMOS 2455 4.2 20:20:18 10° N 20:25:07 24° NE 20:27:59 17° E
SPOT 5 3.8 20:26:04 25° ESE 20:28:18 36° ENE 20:33:05 10° N
BlueWalker 3 2.5 20:31:48 10° WSW 20:35:32 57° NW 20:39:19 10° NE
CZ-4C R/B 4.2 20:32:02 10° NNW 20:37:58 27° NE 20:42:37 17° E
Cosmos 2297 Rocket 3.0 20:33:35 10° N 20:38:43 34° ENE 20:40:35 27° E
Cosmos 1656 3.5 20:35:03 10° SSW 20:40:35 68° ESE 20:46:04 10° NNE
Terra 3.1 20:40:08 23° ENE 20:40:37 24° ENE 20:44:21 10° NNE
Cosmos 1503 Rocket 4.0 20:35:44 10° NNW 20:41:06 73° ENE 20:43:37 32° SSE
CARTOSAT-1 4.2 20:39:30 14° S 20:42:58 53° W 20:47:10 10° NNW
Cosmos 1354 Rocket 4.2 20:38:47 10° NNW 20:44:03 58° ENE 20:45:57 37° SE
Okean 1 Rocket 3.1 20:44:00 37° SSE 20:45:33 59° E 20:49:57 10° NNE
Sich 1 Rocket 3.6 20:41:30 10° S 20:45:53 80° W 20:50:20 10° N
ATLAS 5 CENTAUR R/B 4.3 20:44:28 10° WNW 20:46:25 14° NW 20:48:30 10° N
Iridium 4 Rocket 3.8 20:44:01 30° SSE 20:46:34 56° E 20:52:12 10° N
Okean-O 2.5 20:48:37 35° S 20:50:27 86° WSW 20:54:54 10° NNW
Ariane Rocket 3.8 20:56:30 32° ENE 20:56:57 32° ENE 21:01:24 10° N
Cosmos 1763 Rocket 3.7 20:57:45 45° ESE 20:57:45 45° ESE 21:02:35 10° NNE
CZ-4C R/B 3.7 20:54:51 10° N 20:58:09 50° WNW 20:59:55 24° SW
Genesis I 3.2 20:57:23 10° NNW 21:00:43 59° NNE 21:00:43 59° NNE
Cosmos 44 3.4 20:56:58 10° SSW 21:02:22 86° ESE 21:07:45 10° NNE
Cosmos 1932 4.4 20:57:15 10° NW 21:03:28 77° WSW 21:05:57 38° SSE
Cosmos 2263 Rocket 4.3 21:02:31 10° NNE 21:04:51 12° NE 21:06:06 12° ENE
Okean O Rocket 3.4 21:01:42 11° SSW 21:05:19 28° W 21:09:06 10° NW
Cosmos 540 Rocket 4.1 21:18:45 39° ENE 21:18:45 39° ENE 21:22:21 10° NNE
Cosmos 1605 Rocket 3.9 21:11:12 10° N 21:17:35 71° E 21:19:09 51° SE
Resurs 01 Rocket 4.0 21:17:10 10° SW 21:20:20 19° W 21:23:33 10° NW
Atlas Centaur 2 3.6 21:17:46 10° SW 21:19:37 17° SW 21:19:37 17° SW
IRS-P2 Rocket 4.4 21:24:02 68° SSE 21:24:46 87° ENE 21:30:05 10° NNW
IRS-1C Rocket 4.2 21:23:37 49° SSW 21:24:57 69° WSW 21:30:14 10° NNW
Cosmos 468 Rocket 4.5 21:31:32 46° NE 21:31:32 46° NE 21:35:23 10° NNE
Celestis-02/Orion 38 4.5 21:29:56 68° SSW 21:30:27 75° WSW 21:35:32 10° NNW
ERS-1 Rocket 2.8 21:31:22 84° SSE 21:31:32 89° E 21:36:34 10° NNW
Tiangong 0.7 21:28:45 10° W 21:29:20 15° W 21:29:20 15° W
SPOT 3 Rocket 3.6 21:35:46 66° ENE 21:35:46 66° ENE 21:40:43 10° N
CENTAUR R/B 4.1 21:33:58 10° NNW 21:41:34 38° NE 21:44:48 30° E
ATLAS CENTAUR R/B 3.4 21:43:23 10° N 21:45:04 20° NNE 21:45:04 20° NNE
USA 234 4.1 21:45:56 34° SSW 21:47:22 37° SW 21:53:21 10° WNW
USA 229 DEB 4.2 21:42:02 10° SW 21:47:57 52° NW 21:54:28 10° NNE
USA 229 4.2 21:42:06 10° SW 21:48:02 53° NW 21:54:34 10° NNE
USA 281 4.3 21:45:54 25° SSW 21:48:46 36° WSW 21:54:44 10° NW
Cosmos 1727 Rocket 3.9 21:49:08 74° E 21:49:10 74° E 21:55:25 10° N
Cosmos 1980 Rocket 3.6 21:55:14 25° NE 21:55:14 25° NE 21:57:43 10° NE
SL-4 R/B 4.2 21:51:22 10° NW 21:52:47 20° NNW 21:52:47 20° NNW
Cosmos 2227 Rocket 2.3 21:48:55 10° NNW 21:54:10 69° NNE 21:54:10 69° NNE
Cosmos 2100 Rocket 4.4 21:48:38 10° N 21:54:16 49° ENE 21:54:16 49° ENE
Cosmos 1697 Rocket 2.9 22:00:33 63° W 22:01:05 67° WNW 22:06:45 10° NNE
COSMOS 2455 3.1 22:05:32 10° NW 22:11:08 63° W 22:11:08 63° W
Spot 2 Rocket 4.4 22:16:33 42° WNW 22:16:33 42° WNW 22:20:44 10° NNW
Cosmos 1898 Rocket 4.3 22:12:34 10° NNW 22:16:18 46° N 22:16:18 46° N
Terra 3.2 22:18:50 33° WNW 22:18:50 33° WNW 22:22:21 10° NNW
Cosmos 2297 Rocket 3.4 22:17:39 10° NW 22:22:24 34° W 22:22:24 34° W
CZ-4C R/B 2.9 22:19:45 10° NW 22:27:17 88° WSW 22:27:43 82° SSE
Cosmos 1459 Rocket 4.3 22:31:41 10° N 22:36:35 60° NNW 22:36:35 60° NNW
Cosmos 2219 4.0 22:32:25 10° NNW 22:36:27 48° NNW 22:36:27 48° NNW
Cosmos 2263 Rocket 3.2 22:44:08 10° NNW 22:47:47 41° N 22:47:47 41° N
NOSS 3-2 (A) 4.2 23:00:03 10° NNW 23:07:20 71° NE 23:07:20 71° NE
SL-16 R/B 4.2 23:22:57 21° NE 23:22:57 21° NE 23:24:45 10° NNE
CENTAUR R/B 3.5 23:24:25 10° NW 23:31:56 64° W 23:31:56 64° W
Cosmos 1844 Rocket 4.4 23:29:06 10° N 23:32:09 27° NNE 23:32:09 27° NNE
Cosmos 1980 Rocket 4.0 23:36:55 25° NW 23:36:55 25° NW 23:41:11 10° N
